DAL5123 KSYR-KORD

Flight info

Callsign DAL5123
Flight time 1h 37m
Altitude 38000
Route SYR DINES YXU FNT WYNDE3
Aircraft A20N/M-SDE2E3FGHIRWXY/LB1

Departure

Time 2026-04-26 19:42
Airport Syracuse Hancock International Airport (KSYR)

Arrival

Time 2026-04-26 21:19
Airport Chicago O'Hare International Airport (KORD)
Time Latitude Longitude Altitude Speed Heading
2026-04-26 19:16 43.11247 -76.10993 422 ft 0 kts
2026-04-26 19:27 43.11246 -76.10994 413 ft 1 kts
2026-04-26 19:28 43.11232 -76.10996 415 ft 2 kts
2026-04-26 19:28 43.11218 -76.10994 413 ft 2 kts 340°
2026-04-26 19:28 43.11204 -76.10985 412 ft 2 kts 318°
2026-04-26 19:28 43.11195 -76.10970 410 ft 2 kts 289°
2026-04-26 19:29 43.11192 -76.10959 413 ft 0 kts 272°
2026-04-26 19:31 43.11192 -76.10972 410 ft 3 kts 269°
2026-04-26 19:31 43.11185 -76.11021 418 ft 7 kts 258°
2026-04-26 19:31 43.11165 -76.11103 418 ft 10 kts 240°
2026-04-26 19:32 43.11101 -76.11144 417 ft 11 kts 181°
2026-04-26 19:32 43.11019 -76.11153 417 ft 12 kts 206°
2026-04-26 19:32 43.10989 -76.11256 419 ft 14 kts 269°
2026-04-26 19:32 43.10984 -76.11406 413 ft 17 kts 268°
2026-04-26 19:33 43.10979 -76.11575 421 ft 18 kts 268°
2026-04-26 19:33 43.10973 -76.11765 418 ft 22 kts 267°
2026-04-26 19:33 43.10966 -76.11985 420 ft 24 kts 267°
2026-04-26 19:33 43.10955 -76.12207 415 ft 24 kts 268°
2026-04-26 19:34 43.10950 -76.12428 427 ft 21 kts 269°
2026-04-26 19:34 43.10939 -76.12594 422 ft 12 kts 249°
2026-04-26 19:34 43.10933 -76.12609 426 ft 0 kts 233°
2026-04-26 19:35 43.10928 -76.12616 418 ft 3 kts 227°
2026-04-26 19:35 43.10923 -76.12620 423 ft 0 kts 215°
2026-04-26 19:39 43.10902 -76.12627 430 ft 6 kts 188°
2026-04-26 19:39 43.10857 -76.12576 428 ft 12 kts 119°
2026-04-26 19:39 43.10827 -76.12457 424 ft 8 kts 88°
2026-04-26 19:39 43.10827 -76.12447 428 ft 0 kts 85°
2026-04-26 19:41 43.10828 -76.12443 428 ft 3 kts 85°
2026-04-26 19:41 43.10830 -76.12333 418 ft 41 kts 87°
2026-04-26 19:42 43.10868 -76.11216 415 ft 128 kts 88°
2026-04-26 19:42 43.10910 -76.09801 628 ft 151 kts 88°
2026-04-26 19:42 43.10944 -76.08511 1443 ft 137 kts 87°
2026-04-26 19:42 43.10981 -76.07108 1856 ft 151 kts 81°
2026-04-26 19:43 43.11428 -76.05806 2271 ft 158 kts 38°
2026-04-26 19:43 43.12487 -76.05295 2746 ft 174 kts 355°
2026-04-26 19:43 43.13633 -76.05928 3230 ft 194 kts 318°
2026-04-26 19:43 43.14373 -76.07604 3641 ft 223 kts 285°
2026-04-26 19:44 43.14633 -76.09821 4215 ft 249 kts 276°
2026-04-26 19:44 43.14825 -76.12295 4845 ft 274 kts 277°
2026-04-26 19:44 43.15121 -76.14894 5881 ft 276 kts 281°
2026-04-26 19:44 43.15500 -76.17466 7023 ft 276 kts 284°
2026-04-26 19:45 43.15929 -76.20044 8077 ft 278 kts 285°
2026-04-26 19:45 43.16381 -76.22635 9126 ft 281 kts 286°
2026-04-26 19:45 43.16828 -76.25246 10175 ft 283 kts 286°
2026-04-26 19:45 43.17288 -76.27957 10752 ft 303 kts 286°
2026-04-26 19:46 43.17783 -76.30867 11128 ft 325 kts 286°
2026-04-26 19:46 43.18303 -76.33947 11810 ft 335 kts 286°
2026-04-26 19:46 43.18823 -76.37067 12774 ft 337 kts 286°
2026-04-26 19:46 43.19347 -76.40205 13709 ft 340 kts 286°
2026-04-26 19:47 43.19877 -76.43379 14561 ft 343 kts 286°
2026-04-26 19:47 43.20230 -76.45497 15085 ft 345 kts 286°
2026-04-26 19:47 43.20950 -76.49814 16156 ft 349 kts 287°
2026-04-26 19:47 43.21492 -76.53072 16929 ft 353 kts 287°
2026-04-26 19:48 43.22040 -76.56373 17700 ft 356 kts 287°
2026-04-26 19:48 43.22585 -76.59662 18448 ft 360 kts 287°
2026-04-26 19:48 43.23141 -76.63023 19120 ft 363 kts 287°
2026-04-26 19:48 43.23701 -76.66411 19802 ft 365 kts 287°
2026-04-26 19:49 43.24262 -76.69816 20471 ft 368 kts 287°
2026-04-26 19:49 43.24828 -76.73250 21136 ft 371 kts 287°
2026-04-26 19:49 43.25397 -76.76717 21812 ft 374 kts 287°
2026-04-26 19:49 43.25969 -76.80218 22458 ft 377 kts 287°
2026-04-26 19:50 43.26545 -76.83738 23107 ft 379 kts 287°
2026-04-26 19:50 43.27125 -76.87291 23731 ft 383 kts 287°
2026-04-26 19:50 43.27707 -76.90864 24281 ft 385 kts 287°
2026-04-26 19:50 43.28291 -76.94459 24834 ft 386 kts 287°
2026-04-26 19:51 43.28875 -76.98067 25365 ft 388 kts 287°
2026-04-26 19:51 43.29463 -77.01707 25881 ft 391 kts 287°
2026-04-26 19:51 43.30051 -77.05350 26382 ft 393 kts 286°
2026-04-26 19:51 43.30621 -77.09032 26881 ft 396 kts 284°
2026-04-26 19:52 43.30954 -77.12803 27354 ft 401 kts 278°
2026-04-26 19:52 43.30982 -77.16659 27824 ft 407 kts 272°
2026-04-26 19:52 43.30776 -77.20551 28285 ft 410 kts 270°
2026-04-26 19:52 43.30567 -77.24461 28718 ft 412 kts 270°
2026-04-26 19:53 43.30366 -77.28386 29151 ft 413 kts 270°
2026-04-26 19:53 43.30168 -77.32289 29558 ft 415 kts 270°
2026-04-26 19:53 43.29966 -77.36249 29954 ft 417 kts 270°
2026-04-26 19:53 43.29760 -77.40232 30347 ft 419 kts 270°
2026-04-26 19:54 43.29550 -77.44244 30678 ft 421 kts 270°
2026-04-26 19:54 43.29336 -77.48260 31022 ft 423 kts 270°
2026-04-26 19:54 43.29120 -77.52299 31356 ft 425 kts 270°
2026-04-26 19:54 43.28901 -77.56351 31763 ft 425 kts 270°
2026-04-26 19:55 43.28680 -77.60392 32219 ft 423 kts 270°
2026-04-26 19:55 43.28459 -77.64415 32677 ft 422 kts 270°
2026-04-26 19:55 43.28238 -77.68422 33117 ft 421 kts 270°
2026-04-26 19:55 43.28017 -77.72416 33574 ft 419 kts 270°
2026-04-26 19:56 43.27795 -77.76396 34010 ft 417 kts 270°
2026-04-26 19:56 43.27573 -77.80363 34396 ft 416 kts 270°
2026-04-26 19:56 43.27349 -77.84332 34674 ft 417 kts 270°
2026-04-26 19:56 43.27126 -77.88298 34939 ft 418 kts 270°
2026-04-26 19:57 43.26899 -77.92278 35185 ft 419 kts 269°
2026-04-26 19:57 43.26671 -77.96268 35432 ft 420 kts 269°
2026-04-26 19:57 43.26440 -78.00265 35675 ft 421 kts 269°
2026-04-26 19:57 43.26207 -78.04276 35913 ft 422 kts 269°
2026-04-26 19:58 43.25975 -78.08236 36147 ft 422 kts 269°
2026-04-26 19:58 43.25738 -78.12264 36386 ft 423 kts 269°
2026-04-26 19:58 43.25500 -78.16289 36611 ft 424 kts 269°
2026-04-26 19:58 43.25260 -78.20316 36833 ft 425 kts 269°
2026-04-26 19:59 43.25017 -78.24359 37045 ft 425 kts 269°
2026-04-26 19:59 43.24773 -78.28406 37260 ft 426 kts 269°
2026-04-26 19:59 43.24527 -78.32462 37472 ft 427 kts 269°
2026-04-26 19:59 43.24279 -78.36520 37678 ft 427 kts 268°
2026-04-26 20:00 43.24029 -78.40589 37872 ft 428 kts 268°
2026-04-26 20:00 43.23778 -78.44658 38063 ft 429 kts 268°
2026-04-26 20:00 43.23524 -78.48735 38234 ft 430 kts 268°
2026-04-26 20:00 43.23269 -78.52813 38236 ft 429 kts 268°
2026-04-26 20:01 43.22755 -78.60952 38227 ft 428 kts 268°
2026-04-26 20:01 43.22236 -78.69103 38212 ft 428 kts 268°
2026-04-26 20:02 43.21712 -78.77221 38216 ft 427 kts 268°
2026-04-26 20:02 43.21273 -78.83965 38205 ft 426 kts 268°
2026-04-26 20:03 43.20654 -78.93355 38198 ft 425 kts 268°
2026-04-26 20:03 43.20118 -79.01416 38194 ft 424 kts 268°
2026-04-26 20:04 43.19577 -79.09445 38208 ft 422 kts 268°
2026-04-26 20:04 43.19031 -79.17455 38211 ft 421 kts 268°
2026-04-26 20:05 43.18482 -79.25439 38210 ft 420 kts 268°
2026-04-26 20:05 43.17931 -79.33362 38216 ft 420 kts 268°
2026-04-26 20:06 43.17372 -79.41321 38216 ft 419 kts 268°
2026-04-26 20:06 43.16810 -79.49259 38227 ft 418 kts 268°
2026-04-26 20:07 43.16243 -79.57177 38243 ft 418 kts 268°
2026-04-26 20:07 43.15670 -79.65099 38227 ft 417 kts 268°
2026-04-26 20:08 43.15097 -79.72952 38224 ft 417 kts 268°
2026-04-26 20:08 43.14514 -79.80863 38223 ft 417 kts 268°
2026-04-26 20:09 43.13927 -79.88763 38230 ft 417 kts 268°
2026-04-26 20:09 43.13334 -79.96659 38229 ft 417 kts 268°
2026-04-26 20:10 43.12735 -80.04558 38239 ft 417 kts 268°
2026-04-26 20:10 43.12131 -80.12460 38237 ft 417 kts 268°
2026-04-26 20:11 43.11521 -80.20353 38239 ft 417 kts 268°
2026-04-26 20:12 43.10597 -80.32193 38235 ft 417 kts 268°
2026-04-26 20:12 43.09975 -80.40064 38220 ft 415 kts 268°
2026-04-26 20:13 43.09355 -80.47859 38221 ft 415 kts 268°
2026-04-26 20:13 43.08724 -80.55709 38220 ft 415 kts 268°
2026-04-26 20:14 43.08088 -80.63556 38216 ft 415 kts 268°
2026-04-26 20:14 43.07446 -80.71404 38219 ft 415 kts 268°
2026-04-26 20:15 43.06800 -80.79247 38219 ft 416 kts 267°
2026-04-26 20:15 43.06146 -80.87115 38216 ft 416 kts 267°
2026-04-26 20:16 43.05598 -80.93650 38217 ft 416 kts 267°
2026-04-26 20:16 43.04935 -81.01522 38198 ft 416 kts 267°
2026-04-26 20:17 43.04271 -81.09354 38202 ft 415 kts 267°
2026-04-26 20:17 43.03632 -81.17192 38202 ft 413 kts 270°
2026-04-26 20:18 43.03513 -81.25030 38202 ft 412 kts 273°
2026-04-26 20:18 43.03468 -81.32861 38202 ft 412 kts 272°
2026-04-26 20:19 43.03351 -81.40693 38206 ft 412 kts 272°
2026-04-26 20:19 43.03206 -81.48484 38206 ft 413 kts 272°
2026-04-26 20:20 43.03053 -81.56324 38214 ft 413 kts 272°
2026-04-26 20:20 43.02896 -81.64166 38215 ft 413 kts 272°
2026-04-26 20:21 43.02734 -81.72009 38220 ft 413 kts 272°
2026-04-26 20:21 43.02566 -81.79857 38223 ft 413 kts 272°
2026-04-26 20:22 43.02394 -81.87657 38219 ft 412 kts 272°
2026-04-26 20:22 43.02216 -81.95491 38219 ft 412 kts 272°
2026-04-26 20:23 43.02032 -82.03332 38218 ft 412 kts 271°
2026-04-26 20:23 43.01843 -82.11165 38212 ft 412 kts 271°
2026-04-26 20:24 43.01650 -82.18976 38209 ft 411 kts 271°
2026-04-26 20:24 43.01451 -82.26805 38207 ft 411 kts 271°
2026-04-26 20:25 43.01248 -82.34564 38307 ft 411 kts 271°
2026-04-26 20:25 43.01178 -82.37201 38417 ft 411 kts 271°
2026-04-26 20:25 43.01038 -82.42373 38498 ft 411 kts 271°
2026-04-26 20:25 43.00931 -82.46276 38746 ft 409 kts 271°
2026-04-26 20:26 43.00823 -82.50142 39071 ft 405 kts 271°
2026-04-26 20:26 43.00715 -82.53990 39183 ft 407 kts 271°
2026-04-26 20:26 43.00606 -82.57869 39211 ft 410 kts 271°
2026-04-26 20:27 43.00381 -82.65698 39208 ft 412 kts 271°
2026-04-26 20:27 43.00149 -82.73520 39204 ft 411 kts 271°
2026-04-26 20:28 42.99913 -82.81328 39202 ft 412 kts 271°
2026-04-26 20:28 42.99672 -82.89136 39196 ft 411 kts 271°
2026-04-26 20:29 42.99425 -82.96952 39191 ft 411 kts 271°
2026-04-26 20:29 42.99175 -83.04710 39193 ft 411 kts 270°
2026-04-26 20:30 42.98918 -83.12500 39192 ft 411 kts 270°
2026-04-26 20:30 42.98656 -83.20291 39192 ft 410 kts 270°
2026-04-26 20:31 42.98389 -83.28084 39190 ft 410 kts 270°
2026-04-26 20:31 42.98117 -83.35865 39193 ft 410 kts 270°
2026-04-26 20:32 42.97839 -83.43636 39076 ft 406 kts 270°
2026-04-26 20:32 42.97699 -83.47464 38760 ft 403 kts 270°
2026-04-26 20:32 42.97560 -83.51282 38461 ft 403 kts 270°
2026-04-26 20:32 42.97422 -83.55075 38220 ft 406 kts 270°
2026-04-26 20:33 42.97279 -83.58932 38151 ft 406 kts 270°
2026-04-26 20:33 42.97135 -83.62780 37807 ft 405 kts 270°
2026-04-26 20:33 42.96990 -83.66609 37314 ft 403 kts 270°
2026-04-26 20:33 42.96845 -83.70436 37188 ft 403 kts 270°
2026-04-26 20:34 42.96678 -83.74285 37185 ft 408 kts 268°
2026-04-26 20:34 42.95968 -83.82008 37185 ft 409 kts 266°
2026-04-26 20:35 42.95236 -83.89694 37181 ft 408 kts 266°
2026-04-26 20:35 42.94499 -83.97372 37173 ft 402 kts 266°
2026-04-26 20:35 42.94136 -84.01089 37172 ft 389 kts 266°
2026-04-26 20:36 42.93781 -84.04722 37055 ft 384 kts 266°
2026-04-26 20:36 42.93429 -84.08329 36521 ft 385 kts 266°
2026-04-26 20:36 42.93074 -84.11968 35838 ft 388 kts 265°
2026-04-26 20:36 42.92720 -84.15586 35163 ft 389 kts 265°
2026-04-26 20:37 42.92358 -84.19256 34489 ft 391 kts 265°
2026-04-26 20:37 42.91988 -84.22986 33765 ft 392 kts 265°
2026-04-26 20:37 42.91626 -84.26638 32957 ft 395 kts 265°
2026-04-26 20:37 42.91256 -84.30351 32389 ft 394 kts 265°
2026-04-26 20:38 42.90869 -84.34084 32210 ft 402 kts 262°
2026-04-26 20:38 42.90017 -84.37747 32175 ft 411 kts 248°
2026-04-26 20:38 42.88502 -84.41072 32173 ft 417 kts 234°
2026-04-26 20:38 42.86407 -84.43839 32175 ft 424 kts 221°
2026-04-26 20:39 42.83879 -84.45968 32175 ft 429 kts 213°
2026-04-26 20:39 42.78631 -84.49883 32175 ft 430 kts 213°
2026-04-26 20:40 42.73650 -84.54236 32174 ft 421 kts 229°
2026-04-26 20:40 42.71805 -84.57278 32175 ft 414 kts 242°
2026-04-26 20:40 42.70553 -84.60766 32174 ft 408 kts 254°
2026-04-26 20:40 42.69926 -84.64504 32178 ft 404 kts 266°
2026-04-26 20:41 42.69802 -84.68279 32177 ft 404 kts 270°
2026-04-26 20:41 42.69614 -84.75909 32170 ft 405 kts 270°
2026-04-26 20:42 42.69408 -84.83570 32170 ft 405 kts 269°
2026-04-26 20:42 42.69196 -84.91238 32180 ft 406 kts 269°
2026-04-26 20:43 42.68980 -84.98900 32185 ft 406 kts 269°
2026-04-26 20:43 42.68759 -85.06561 32166 ft 406 kts 269°
2026-04-26 20:44 42.68532 -85.14228 32089 ft 404 kts 269°
2026-04-26 20:44 42.68417 -85.18040 31835 ft 403 kts 269°
2026-04-26 20:44 42.68301 -85.21848 31583 ft 404 kts 269°
2026-04-26 20:44 42.68184 -85.25672 31335 ft 405 kts 269°
2026-04-26 20:45 42.68065 -85.29502 31086 ft 406 kts 269°
2026-04-26 20:45 42.67946 -85.33298 30837 ft 407 kts 269°
2026-04-26 20:45 42.67824 -85.37130 30595 ft 406 kts 269°
2026-04-26 20:45 42.67701 -85.40962 30350 ft 404 kts 268°
2026-04-26 20:46 42.67578 -85.44766 30096 ft 403 kts 268°
2026-04-26 20:46 42.67454 -85.48561 29812 ft 401 kts 268°
2026-04-26 20:46 42.67329 -85.52341 29530 ft 399 kts 268°
2026-04-26 20:46 42.67203 -85.56103 29254 ft 398 kts 268°
2026-04-26 20:47 42.67076 -85.59853 28976 ft 396 kts 268°
2026-04-26 20:47 42.66990 -85.62377 28789 ft 395 kts 268°
2026-04-26 20:47 42.66821 -85.67306 28431 ft 393 kts 268°
2026-04-26 20:47 42.66692 -85.71018 27986 ft 393 kts 268°
2026-04-26 20:48 42.66562 -85.74728 27442 ft 391 kts 268°
2026-04-26 20:48 42.66432 -85.78416 26896 ft 386 kts 268°
2026-04-26 20:48 42.66303 -85.82035 26369 ft 382 kts 268°
2026-04-26 20:48 42.66174 -85.85632 25851 ft 379 kts 267°
2026-04-26 20:49 42.66045 -85.89166 25337 ft 379 kts 267°
2026-04-26 20:49 42.65915 -85.92733 24823 ft 377 kts 267°
2026-04-26 20:49 42.65784 -85.96272 24310 ft 374 kts 267°
2026-04-26 20:49 42.65654 -85.99778 23820 ft 370 kts 267°
2026-04-26 20:50 42.65525 -86.03216 23636 ft 358 kts 267°
2026-04-26 20:50 42.65401 -86.06513 23449 ft 342 kts 266°
2026-04-26 20:50 42.65281 -86.09684 23224 ft 331 kts 266°
2026-04-26 20:50 42.65161 -86.12798 22748 ft 329 kts 266°
2026-04-26 20:51 42.65041 -86.15890 22268 ft 327 kts 266°
2026-04-26 20:51 42.64921 -86.18968 21815 ft 324 kts 266°
2026-04-26 20:51 42.64802 -86.22009 21364 ft 322 kts 266°
2026-04-26 20:51 42.64683 -86.25044 20922 ft 320 kts 265°
2026-04-26 20:52 42.64415 -86.27988 20496 ft 317 kts 258°
2026-04-26 20:52 42.63893 -86.30885 20073 ft 314 kts 255°
2026-04-26 20:52 42.63348 -86.33755 19656 ft 312 kts 255°
2026-04-26 20:52 42.62819 -86.36595 19334 ft 308 kts 255°
2026-04-26 20:53 42.62295 -86.39419 19090 ft 309 kts 255°
2026-04-26 20:53 42.61766 -86.42257 18858 ft 310 kts 255°
2026-04-26 20:53 42.61237 -86.45090 18623 ft 308 kts 255°
2026-04-26 20:53 42.60710 -86.47902 18373 ft 306 kts 255°
2026-04-26 20:54 42.60185 -86.50698 18136 ft 305 kts 254°
2026-04-26 20:54 42.59661 -86.53483 17901 ft 304 kts 254°
2026-04-26 20:54 42.59139 -86.56255 17573 ft 301 kts 254°
2026-04-26 20:54 42.58618 -86.59013 17344 ft 302 kts 254°
2026-04-26 20:55 42.58096 -86.61778 17117 ft 303 kts 254°
2026-04-26 20:55 42.57573 -86.64542 16885 ft 302 kts 254°
2026-04-26 20:55 42.57058 -86.67257 16656 ft 301 kts 254°
2026-04-26 20:55 42.56537 -86.70005 16425 ft 300 kts 253°
2026-04-26 20:56 42.55985 -86.72734 16190 ft 298 kts 250°
2026-04-26 20:56 42.55268 -86.75376 15967 ft 298 kts 248°
2026-04-26 20:56 42.54553 -86.78007 15741 ft 297 kts 248°
2026-04-26 20:56 42.53845 -86.80630 15509 ft 296 kts 248°
2026-04-26 20:57 42.53137 -86.83254 15282 ft 295 kts 248°
2026-04-26 20:57 42.52441 -86.85829 15061 ft 294 kts 248°
2026-04-26 20:57 42.51727 -86.88462 14831 ft 293 kts 248°
2026-04-26 20:57 42.51023 -86.91058 14602 ft 293 kts 248°
2026-04-26 20:58 42.50331 -86.93604 14378 ft 292 kts 248°
2026-04-26 20:58 42.49630 -86.96184 14158 ft 291 kts 247°
2026-04-26 20:58 42.48930 -86.98754 13931 ft 291 kts 247°
2026-04-26 20:58 42.48230 -87.01323 13703 ft 290 kts 247°
2026-04-26 20:59 42.47532 -87.03881 13475 ft 289 kts 247°
2026-04-26 20:59 42.46834 -87.06434 13256 ft 289 kts 247°
2026-04-26 20:59 42.46137 -87.08983 13032 ft 288 kts 247°
2026-04-26 20:59 42.45441 -87.11525 12813 ft 288 kts 247°
2026-04-26 21:00 42.44747 -87.14060 12595 ft 287 kts 247°
2026-04-26 21:00 42.44098 -87.16425 12391 ft 286 kts 247°
2026-04-26 21:00 42.43404 -87.18954 12173 ft 286 kts 247°
2026-04-26 21:00 42.42711 -87.21477 11957 ft 289 kts 247°
2026-04-26 21:01 42.41956 -87.24203 11716 ft 326 kts 247°
2026-04-26 21:01 42.41160 -87.27085 11469 ft 323 kts 247°
2026-04-26 21:01 42.40383 -87.29915 11225 ft 325 kts 247°
2026-04-26 21:01 42.39563 -87.32886 11065 ft 342 kts 247°
2026-04-26 21:02 42.38734 -87.35891 11030 ft 340 kts 247°
2026-04-26 21:02 42.37905 -87.38893 11027 ft 341 kts 247°
2026-04-26 21:02 42.37352 -87.40890 11028 ft 341 kts 247°
2026-04-26 21:02 42.36519 -87.43898 11026 ft 341 kts 247°
2026-04-26 21:03 42.35416 -87.47873 11030 ft 341 kts 247°
2026-04-26 21:03 42.34855 -87.49892 11025 ft 341 kts 246°
2026-04-26 21:03 42.33793 -87.52741 11026 ft 338 kts 234°
2026-04-26 21:03 42.31681 -87.55787 11028 ft 335 kts 217°
2026-04-26 21:04 42.30431 -87.57091 11021 ft 335 kts 217°
2026-04-26 21:04 42.28589 -87.59025 11024 ft 335 kts 217°
2026-04-26 21:04 42.26774 -87.60943 11021 ft 336 kts 217°
2026-04-26 21:04 42.24911 -87.62910 11017 ft 336 kts 217°
2026-04-26 21:05 42.23090 -87.64824 11018 ft 336 kts 217°
2026-04-26 21:05 42.21249 -87.66757 11015 ft 336 kts 217°
2026-04-26 21:05 42.19401 -87.68697 11013 ft 336 kts 217°
2026-04-26 21:05 42.17556 -87.70632 11007 ft 336 kts 217°
2026-04-26 21:06 42.15718 -87.72559 10874 ft 333 kts 217°
2026-04-26 21:06 42.14006 -87.74353 10491 ft 332 kts 216°
2026-04-26 21:06 42.12195 -87.76250 10151 ft 324 kts 216°
2026-04-26 21:06 42.10540 -87.78131 9948 ft 305 kts 226°
2026-04-26 21:07 42.09475 -87.80515 9715 ft 290 kts 248°
2026-04-26 21:07 42.09156 -87.83181 9212 ft 292 kts 266°
2026-04-26 21:07 42.09168 -87.85904 8826 ft 290 kts 267°
2026-04-26 21:07 42.09183 -87.88617 8413 ft 289 kts 267°
2026-04-26 21:08 42.09191 -87.91319 8006 ft 288 kts 267°
2026-04-26 21:08 42.09196 -87.94008 7599 ft 286 kts 266°
2026-04-26 21:08 42.09196 -87.96676 7209 ft 284 kts 266°
2026-04-26 21:08 42.09194 -87.99300 7058 ft 276 kts 266°
2026-04-26 21:09 42.09189 -88.01912 6992 ft 283 kts 266°
2026-04-26 21:09 42.09184 -88.04562 6813 ft 281 kts 266°
2026-04-26 21:09 42.09180 -88.07167 6641 ft 278 kts 266°
2026-04-26 21:09 42.09171 -88.09773 6466 ft 278 kts 266°
2026-04-26 21:10 42.09162 -88.12384 6301 ft 278 kts 266°
2026-04-26 21:10 42.09153 -88.14957 6104 ft 278 kts 266°
2026-04-26 21:10 42.09142 -88.17586 5896 ft 276 kts 266°
2026-04-26 21:10 42.09132 -88.20141 5716 ft 277 kts 266°
2026-04-26 21:11 42.09120 -88.22758 5529 ft 276 kts 266°
2026-04-26 21:11 42.09094 -88.25313 5400 ft 276 kts 262°
2026-04-26 21:11 42.08548 -88.27705 5277 ft 261 kts 234°
2026-04-26 21:11 42.07319 -88.29332 5169 ft 238 kts 205°
2026-04-26 21:12 42.05803 -88.29833 5061 ft 217 kts 178°
2026-04-26 21:12 42.04328 -88.29756 4951 ft 208 kts 176°
2026-04-26 21:12 42.02865 -88.29661 4869 ft 212 kts 176°
2026-04-26 21:12 42.01400 -88.29527 4752 ft 209 kts 168°
2026-04-26 21:13 42.00129 -88.28646 4653 ft 213 kts 136°
2026-04-26 21:13 41.99437 -88.26893 4551 ft 219 kts 104°
2026-04-26 21:13 41.99354 -88.24867 4238 ft 217 kts 89°
2026-04-26 21:13 41.99541 -88.22840 4043 ft 221 kts 85°
2026-04-26 21:14 41.99780 -88.20775 4003 ft 225 kts 84°
2026-04-26 21:14 42.00027 -88.18729 3988 ft 222 kts 84°
2026-04-26 21:14 42.00216 -88.16663 3990 ft 221 kts 89°
2026-04-26 21:14 42.00277 -88.14614 3903 ft 216 kts 93°
2026-04-26 21:15 42.00282 -88.12664 3631 ft 201 kts 95°
2026-04-26 21:15 42.00283 -88.10867 3380 ft 182 kts 93°
2026-04-26 21:15 42.00287 -88.09227 3170 ft 172 kts 94°
2026-04-26 21:15 42.00282 -88.07677 2912 ft 157 kts 94°
2026-04-26 21:16 42.00284 -88.06278 2716 ft 148 kts 94°
2026-04-26 21:16 42.00278 -88.04862 2519 ft 148 kts 92°
2026-04-26 21:16 42.00285 -88.03537 2323 ft 133 kts 93°
2026-04-26 21:16 42.00282 -88.02346 2168 ft 126 kts 91°
2026-04-26 21:17 42.00282 -88.01149 1986 ft 128 kts 91°
2026-04-26 21:17 42.00284 -87.99945 1788 ft 126 kts 90°
2026-04-26 21:17 42.00283 -87.98841 1616 ft 114 kts 91°
2026-04-26 21:17 42.00282 -87.97755 1463 ft 119 kts 91°
2026-04-26 21:18 42.00279 -87.96622 1311 ft 125 kts 90°
2026-04-26 21:18 42.00277 -87.95445 1096 ft 125 kts 88°
2026-04-26 21:18 42.00283 -87.94333 940 ft 114 kts 88°
2026-04-26 21:18 42.00277 -87.93253 793 ft 116 kts 88°
2026-04-26 21:19 42.00280 -87.92170 705 ft 117 kts 86°
2026-04-26 21:19 42.00291 -87.91155 674 ft 90 kts 90°
2026-04-26 21:19 42.00288 -87.90546 680 ft 42 kts 94°
2026-04-26 21:19 42.00248 -87.90203 674 ft 26 kts 110°
2026-04-26 21:20 42.00172 -87.90038 669 ft 0 kts 131°